SCP
0 0 0 0 0 0 0 0 0 0 0 -0 -0 0 0 0 0 0 0 -0 -0 -0 -0 -0 0 0 0 0 0 0 0 0 0 0 0 0 0 0 0 0 0 0 0 0
0 0 0 0 0 0 0 0 0 0 0 0 -0 0 0 -0 0 -0 -0 -0 -0 -0 -0 -0 0 0 0 0 0 0 0 0 0 0 0 0 0 0 0 0 0 0 0 0
0 0 0 0 0 0 0 0 0 0 0 0 -0 -0 -0 0 0 0 0 0 0 0 0 0 0 0 0 0 0 0 0 0 0 0 0 0 0 0 0 0 0 0 0 0
0 0 0 0 0 0 0 0 0 0 0 0 0 0 0 0 0 0 0 0 0 0 0 0 0 0 0 0 0 0 0 0 0 0 0 0 0 0 0 0 0 0 0 0
0 0 0 0 0 0 0 0 0 0 0 0 0 -0 0 0 0 0 0 0 -0 -0 -0 -0 0 0 0 0 0 0 0 0 0 0 0 0 0 0 0 0 0 0 0 0
0 0 0 0 0 0 0 0 0 0 0 0 0 -0 0 0 0 0 -0 -0 0 0 0 0 -0 0 0 0 0 0 0 0 0 0 0 0 0 0 0 0 0 0 0 0
0 0 0 0 0 0 0 0 0 0 0 0 -0 -0 -0 0 0 -0 -0 -0 -0 0 0 0 0 0 0 0 0 0 0 0 0 0 0 0 0 0 0 0 0 0 0 0
0 0 0 0 0 0 0 0 0 0 0 -0 -0 -0 -0 -0 -0 -0 -0 -0 -0 -0 0 0 0 0 0 0 0 0 0 0 0 0 0 0 0 0 0 0 0 0 0 0
0 0 0 0 0 0 0 0 0 0 0 -0 -0 -0 -0 -0 -0 -0 -0 -0 -0 -0 -0 -0 -0 -0 0 0 0 0 0 0 0 0 0 0 0 0 0 0 0 0 0 0
0 0 0 0 0 0 0 0 0 0 -0 -0 -0 -0 -0 -0 -0 -0 -0 -0 -0 -0 -0 -0 0 -0 -0 -0 -0 0 0 0 0 0 0 0 0 0 0 0 0 0 0 0
0 0 0 0 0 0 0 0 0 0 -0 -0 -0 -0 -0 -0 -0 -0 -0 -0 -0 -0 -0 -0 -0 0 -0 -0 -0 -0 0 0 0 0 0 0 0 0 0 0 0 0 0 0
0 0 0 0 0 0 0 0 0 0 0 0 0 0 -0 -0 -0 -0 -0 -0 -0 -0 -0 -0 -0 0 0 -0 -0 -0 -0 0 0 0 0 0 0 0 0 0 0 0 0 0
0 0 0 0 0 0 0 0 0 0 0 0 0 0 0 0 -0 -0 -0 -0 0 0 0 0 0 0 0 0 0 0 -0 -0 0 0 0 0 0 0 0 0 0 0 0 0
0 0 0 0 0 0 0 0 0 0 0 0 0 0 0 0 0 -0 -0 -0 0 0 0 0 0 0 0 0 0 0 0 -0 -0 0 0 0 0 0 0 0 0 0 0 0
0 0 0 0 0 0 0 0 0 0 0 0 0 0 0 0 0 0 0 0 0 0 0 0 0 0 0 0 0 0 0 0 -0 -0 0 0 0 0 0 0 0 0 0 0
0 0 0 0 0 0 0 0 0 0 0 0 0 0 0 0 0 0 0 0 0 0 0 0 0 0 0 0 0 0 0 0 0 0 0 0 0 0 0 0 0 0 0 0
0 0 0 0 0 0 0 0 0 0 -0 0 0 0 0 0 0 0 0 0 0 0 0 0 0 0 0 0 0 0 0 0 0 0 0 0 0 0 0 0 0 0 0 0
0 0 0 0 0 0 0 0 0 -0 -0 -0 0 0 0 0 0 0 0 0 0 0 0 0 0 0 0 0 0 0 0 0 0 0 0 0 0 0 0 0 0 0 0 0
0 0 0 0 0 0 0 0 0 0 0 0 -0 -0 -0 -0 -0 0 0 0 0 0 0 0 0 0 0 0 0 0 0 0 0 0 0 0 0 0 0 0 0 0 0 0
0 0 0 0 0 0 0 0 0 0 0 0 0 0 0 -0 -0 -0 -0 -0 -0 0 0 0 0 0 0 0 0 0 0 0 0 0 0 0 0 0 0 0 0 0 0 0
0 0 0 0 0 0 0 0 0 0 0 0 0 0 0 -0 -0 -0 0 0 0 0 0 0 -0 0 0 0 0 0 0 0 0 0 0 0 0 0 0 0 0 0 0 0
0 0 0 0 0 0 0 0 0 0 0 0 0 0 0 0 0 0 -0 -0 0 0 0 -0 -0 0 0 -0 -0 -0 -0 -0 -0 -0 0 0 0 0 0 0 0 0 0 0
0 0 0 0 0 0 0 0 0 0 0 0 0 0 0 -0 -0 -0 0 0 0 0 -0 -0 0 0 0 -0 -0 -0 -0 -0 -0 -0 -0 -0 0 0 0 0 0 0 0 0
0 0 0 0 0 0 0 0 0 0 0 0 -0 -0 -0 0 0 -0 -0 -0 0 0 -0 -0 -0 0 -0 -0 -0 -0 -0 -0 -0 -0 -0 0 0 0 0 0 0 0 0 0
0 0 0 0 0 0 0 0 0 0 0 0 0 0 -0 -0 -0 0 0 0 0 -0 -0 -0 0 0 -0 -0 -0 -0 -0 -0 -0 -0 -0 0 0 0 0 0 0 0 0 0
0 0 0 0 0 0 0 0 0 0 0 0 0 0 0 0 0 0 0 0 0 0 -0 0 -0 -0 -0 -0 -0 -0 -0 -0 -0 -0 0 0 0 0 0 0 0 0 0 0
0 0 0 0 0 0 0 0 0 0 0 0 0 0 0 0 0 0 0 0 0 0 0 0 0 0 0 0 0 0 0 0 0 0 0 0 0 0 0 0 0 0 0 0
Wind_Speed_500mb
29 21 20 27 15 20 22 30 27 44 40 62 34 19 42 68 84 81 83 68 60 63 66 78 83 79 70 68 64 65 59 56 66 67 73 81 90 93 94 97 100 99 98 97
9 8 17 27 28 28 24 25 17 32 39 62 63 56 50 57 69 72 72 74 81 92 81 77 80 80 74 71 75 65 60 60 61 69 72 74 78 84 90 94 95 95 95 94
5 6 8 16 36 31 32 36 32 36 51 57 48 17 38 57 51 50 61 67 75 86 84 79 83 86 86 80 73 72 71 64 61 64 72 75 76 79 85 91 93 97 96 93
7 7 5 17 6 14 23 30 28 39 44 49 46 58 60 19 46 56 63 62 60 62 67 77 84 86 83 78 80 80 78 73 67 71 72 74 77 81 83 86 91 94 96 95
6 8 16 23 15 16 15 35 12 13 25 35 62 59 8 43 73 61 65 74 77 82 83 81 80 82 84 85 84 85 86 81 79 77 75 73 77 82 83 83 86 90 93 93
4 8 16 8 10 38 9 18 20 30 24 33 50 16 11 87 90 92 91 93 98 96 90 85 83 70 70 85 84 92 84 78 74 71 73 71 73 76 79 81 84 83 85 85
8 9 12 6 14 31 7 10 33 33 34 39 19 21 58 70 84 81 89 94 97 93 96 96 91 77 74 75 83 86 83 77 78 74 73 75 73 74 73 76 80 83 85 86
6 6 14 27 8 3 10 21 36 38 38 45 42 53 56 53 65 87 100 100 96 100 100 96 91 81 72 76 72 67 75 80 74 70 70 77 78 76 77 78 78 80 81 79
15 9 18 34 40 25 22 23 34 45 55 57 61 62 68 70 64 67 93 103 94 96 102 96 90 82 80 72 68 74 78 74 68 67 71 72 76 79 81 82 83 83 84 84
7 8 13 29 22 21 38 33 44 43 54 66 70 72 81 76 71 75 85 94 92 92 98 97 86 82 76 74 70 65 64 64 63 64 70 73 74 77 80 84 87 89 89 91
9 9 21 25 33 48 52 40 48 58 56 54 63 75 68 76 73 83 81 83 84 86 88 88 81 77 73 70 67 66 58 56 54 59 65 69 74 78 82 86 88 92 94 96
3 11 3 19 41 51 41 49 52 57 72 60 51 59 68 75 74 68 71 78 78 76 71 73 70 67 66 64 58 56 55 50 49 51 58 63 70 80 83 86 86 87 87 85
3 18 25 38 29 20 47 45 47 50 54 58 59 51 55 69 67 56 59 60 62 58 55 59 58 56 54 52 52 48 49 44 43 44 49 55 61 70 78 79 80 78 77 74
14 22 9 11 26 38 37 41 44 47 44 47 51 52 50 58 56 51 52 53 52 48 46 49 49 47 47 44 42 42 44 39 36 37 39 46 54 61 68 73 77 74 71 70
5 16 21 27 28 30 32 35 40 44 48 49 46 48 49 53 51 51 46 44 43 45 45 47 49 50 47 44 38 35 38 39 36 34 35 39 47 56 58 64 69 71 70 66
8 10 9 20 25 27 30 32 37 44 46 46 48 47 45 42 43 47 44 42 52 59 58 56 55 58 54 50 45 36 30 32 32 35 35 35 41 48 47 54 62 66 66 67
8 5 14 13 23 27 29 30 33 38 41 42 43 41 43 44 42 46 49 44 43 53 57 60 62 62 57 53 54 51 46 41 33 28 29 35 34 34 38 45 51 54 58 58
4 6 10 16 22 28 25 25 27 30 36 40 40 39 40 45 50 49 47 51 49 51 58 61 60 61 61 62 59 54 53 50 44 34 26 26 24 26 30 33 39 46 50 48
1 3 7 11 14 17 20 24 25 28 31 34 36 37 38 44 42 44 46 55 61 65 66 63 60 60 61 59 59 59 60 55 50 42 32 25 21 15 14 19 26 33 39 48
1 4 7 10 13 17 17 21 24 26 30 33 33 36 39 38 45 45 49 55 57 57 59 62 62 62 60 58 56 57 54 51 49 48 46 43 36 25 17 14 14 16 25 34
1 4 8 13 14 13 17 23 26 27 28 30 34 37 40 40 39 48 52 56 57 56 57 59 60 63 64 61 56 53 50 48 47 47 45 43 38 37 34 28 18 7 5 13
6 8 10 12 13 15 16 18 21 24 26 28 31 35 40 43 44 41 45 53 54 55 55 56 58 58 59 57 56 55 52 49 46 46 43 40 37 34 31 27 23 20 17 12
11 11 11 11 12 14 16 18 21 25 29 33 38 40 43 46 48 53 58 52 52 54 55 54 54 54 54 53 53 53 52 51 49 47 45 43 41 36 32 28 24 20 16 14
10 9 9 11 14 14 13 17 22 26 31 34 37 40 44 46 37 42 45 49 52 53 53 54 54 53 53 53 53 51 50 50 50 49 47 45 44 42 40 36 32 30 29 27
7 8 9 10 12 15 20 25 28 32 32 32 33 34 37 42 48 50 50 50 50 52 52 52 52 53 54 54 54 53 51 51 50 50 49 49 49 49 46 45 43 42 40 39
7 8 9 11 14 21 27 32 35 36 36 36 34 38 40 42 44 46 48 50 50 50 51 52 53 53 53 53 54 54 54 54 53 53 53 53 51 51 51 51 51 50 48 46
6 9 11 15 21 28 34 36 36 35 38 42 42 41 44 44 44 45 47 48 49 49 50 51 52 52 53 54 53 53 53 53 54 55 56 56 55 56 56 56 55 55 55 54
Wind_Direction_500mb
246 259 278 276 247 220 231 248 256 266 267 273 276 311 313 311 309 306 303 299 299 299 300 301 297 298 301 306 306 307 298 275 259 257 255 250 247 245 245 245 245 243 241 241
318 295 277 279 272 262 252 233 245 261 270 268 279 272 281 279 275 276 285 295 297 297 296 298 300 301 300 297 301 304 296 283 275 263 258 253 250 246 244 242 242 242 241 241
268 231 227 271 249 249 255 252 243 251 255 275 284 275 262 256 274 298 300 297 296 297 300 299 296 296 293 293 297 296 293 291 279 275 266 260 255 248 244 242 242 241 240 238
204 56 249 237 304 237 249 255 241 244 256 267 284 282 273 37 15 354 342 342 336 332 323 312 303 299 298 292 289 289 288 289 294 287 273 265 257 251 246 243 242 241 239 237
159 200 278 294 271 255 241 269 346 307 9 358 344 328 238 6 350 344 335 335 335 330 317 308 307 308 302 296 291 286 287 291 294 289 277 266 260 255 249 244 242 241 240 240
115 179 232 65 5 331 337 275 13 16 3 359 352 355 323 328 333 327 325 325 325 325 323 322 312 305 296 294 291 285 290 295 296 288 278 272 265 260 252 245 243 240 238 237
211 252 292 353 312 297 153 288 350 1 348 342 338 306 304 315 315 317 320 322 325 323 317 321 323 316 293 292 289 296 297 296 292 287 274 273 269 260 256 247 241 237 236 237
176 236 287 356 1 251 8 3 348 342 335 326 319 311 310 314 312 318 319 320 322 320 318 319 322 323 308 292 292 290 290 288 285 284 278 270 265 261 251 244 239 236 231 228
175 204 73 63 103 77 33 357 345 334 330 329 324 321 318 318 319 316 316 317 320 316 315 316 318 321 317 313 303 289 282 279 280 277 275 271 263 256 248 241 235 231 226 224
38 23 67 117 91 27 357 349 330 328 325 324 321 321 318 320 320 319 318 317 317 314 314 314 316 317 319 318 315 305 289 282 280 277 274 267 257 252 246 241 233 230 226 224
279 56 36 115 27 349 342 333 329 322 323 321 318 317 318 315 316 317 318 318 314 312 311 312 315 315 316 320 319 311 302 288 277 277 275 269 257 249 245 242 239 236 232 228
204 77 314 288 320 335 338 336 330 325 321 322 322 315 314 314 319 318 317 318 314 311 309 312 316 316 318 320 321 318 309 297 287 282 278 270 260 250 241 238 237 236 236 238
80 303 291 302 320 303 326 330 327 323 321 320 322 322 322 323 326 326 328 327 325 320 317 319 319 320 320 321 321 324 315 306 298 292 286 275 261 250 245 239 237 235 237 237
303 324 2 322 319 327 330 330 329 330 333 330 331 334 339 333 333 336 339 338 339 336 330 330 331 332 330 329 326 326 322 317 313 305 295 281 267 257 250 246 240 234 232 229
201 321 299 306 323 334 340 343 345 348 344 343 346 343 347 346 348 346 347 346 352 357 355 352 350 349 348 343 335 336 339 334 328 313 303 287 276 267 256 251 245 239 233 228
288 308 315 333 334 338 348 352 355 352 348 349 351 351 352 352 1 6 2 1 9 12 10 10 9 5 359 355 352 346 353 352 342 328 315 293 274 267 261 252 247 242 237 234
348 14 340 350 338 343 354 356 358 354 347 355 357 357 4 3 7 12 15 16 18 21 19 19 20 16 13 9 4 2 2 356 353 342 316 289 271 265 261 255 250 247 242 238
11 349 336 339 333 330 349 353 2 0 356 4 3 1 1 3 9 8 9 15 23 27 23 21 22 20 23 24 20 17 17 10 1 350 332 307 288 272 265 261 256 254 249 236
38 355 349 336 326 327 346 348 359 358 355 2 6 3 359 6 3 6 11 17 19 19 19 18 19 21 23 24 24 27 30 25 21 16 7 349 333 324 296 275 266 258 246 233
114 18 348 321 307 318 343 347 352 357 356 358 0 3 4 1 3 4 14 20 19 16 13 13 15 19 20 20 20 25 29 27 26 28 27 24 20 14 2 331 295 265 243 234
97 320 307 297 304 323 343 348 349 352 356 357 357 2 1 0 2 4 6 9 10 10 11 12 12 13 12 12 15 18 19 20 19 20 23 24 26 29 27 25 20 8 268 238
282 282 289 302 314 326 334 345 347 347 349 353 353 353 353 355 355 0 5 359 358 360 2 3 4 6 3 4 7 10 10 10 9 8 9 9 10 13 17 18 17 10 360 345
272 280 291 301 310 324 334 345 345 345 347 347 346 346 348 351 351 352 353 358 357 358 358 359 359 358 356 356 358 358 0 360 0 0 358 356 355 353 352 349 345 336 326 313
267 280 299 309 316 325 332 339 341 339 339 341 340 342 344 347 356 351 347 348 350 351 353 352 353 353 353 354 355 354 352 351 348 347 347 345 343 343 339 332 325 317 310 300
269 294 305 306 311 324 333 336 337 332 335 342 344 345 346 345 343 343 344 345 346 346 349 349 348 348 349 349 348 348 346 344 343 340 338 335 333 332 329 327 324 318 310 304
287 296 302 311 321 332 335 334 336 337 338 340 346 341 341 340 339 340 343 344 345 345 346 346 347 346 346 346 345 344 343 340 337 336 333 331 328 323 319 315 312 310 309 306
280 300 312 319 326 331 332 332 334 338 338 336 337 340 340 339 339 340 341 342 343 343 343 343 343 343 343 342 342 340 338 336 335 332 330 327 324 321 317 314 311 306 302 299
Wind_Speed_850mb
29 21 20 27 15 20 22 30 27 44 40 62 34 19 42 68 84 81 83 68 60 63 66 78 83 79 70 68 64 65 59 56 66 67 73 81 90 93 94 97 100 99 98 97
9 8 17 27 28 28 24 25 17 32 39 62 63 56 50 57 69 72 72 74 81 92 81 77 80 80 74 71 75 65 60 60 61 69 72 74 78 84 90 94 95 95 95 94
5 6 8 16 36 31 32 36 32 36 51 57 48 17 38 57 51 50 61 67 75 86 84 79 83 86 86 80 73 72 71 64 61 64 72 75 76 79 85 91 93 97 96 93
7 7 5 17 6 14 23 30 28 39 44 49 46 58 60 19 46 56 63 62 60 62 67 77 84 86 83 78 80 80 78 73 67 71 72 74 77 81 83 86 91 94 96 95
6 8 16 23 15 16 15 35 12 13 25 35 62 59 8 43 73 61 65 74 77 82 83 81 80 82 84 85 84 85 86 81 79 77 75 73 77 82 83 83 86 90 93 93
4 8 16 8 10 38 9 18 20 30 24 33 50 16 11 87 90 92 91 93 98 96 90 85 83 70 70 85 84 92 84 78 74 71 73 71 73 76 79 81 84 83 85 85
8 9 12 6 14 31 7 10 33 33 34 39 19 21 58 70 84 81 89 94 97 93 96 96 91 77 74 75 83 86 83 77 78 74 73 75 73 74 73 76 80 83 85 86
6 6 14 27 8 3 10 21 36 38 38 45 42 53 56 53 65 87 100 100 96 100 100 96 91 81 72 76 72 67 75 80 74 70 70 77 78 76 77 78 78 80 81 79
15 9 18 34 40 25 22 23 34 45 55 57 61 62 68 70 64 67 93 103 94 96 102 96 90 82 80 72 68 74 78 74 68 67 71 72 76 79 81 82 83 83 84 84
7 8 13 29 22 21 38 33 44 43 54 66 70 72 81 76 71 75 85 94 92 92 98 97 86 82 76 74 70 65 64 64 63 64 70 73 74 77 80 84 87 89 89 91
9 9 21 25 33 48 52 40 48 58 56 54 63 75 68 76 73 83 81 83 84 86 88 88 81 77 73 70 67 66 58 56 54 59 65 69 74 78 82 86 88 92 94 96
3 11 3 19 41 51 41 49 52 57 72 60 51 59 68 75 74 68 71 78 78 76 71 73 70 67 66 64 58 56 55 50 49 51 58 63 70 80 83 86 86 87 87 85
3 18 25 38 29 20 47 45 47 50 54 58 59 51 55 69 67 56 59 60 62 58 55 59 58 56 54 52 52 48 49 44 43 44 49 55 61 70 78 79 80 78 77 74
14 22 9 11 26 38 37 41 44 47 44 47 51 52 50 58 56 51 52 53 52 48 46 49 49 47 47 44 42 42 44 39 36 37 39 46 54 61 68 73 77 74 71 70
5 16 21 27 28 30 32 35 40 44 48 49 46 48 49 53 51 51 46 44 43 45 45 47 49 50 47 44 38 35 38 39 36 34 35 39 47 56 58 64 69 71 70 66
8 10 9 20 25 27 30 32 37 44 46 46 48 47 45 42 43 47 44 42 52 59 58 56 55 58 54 50 45 36 30 32 32 35 35 35 41 48 47 54 62 66 66 67
8 5 14 13 23 27 29 30 33 38 41 42 43 41 43 44 42 46 49 44 43 53 57 60 62 62 57 53 54 51 46 41 33 28 29 35 34 34 38 45 51 54 58 58
4 6 10 16 22 28 25 25 27 30 36 40 40 39 40 45 50 49 47 51 49 51 58 61 60 61 61 62 59 54 53 50 44 34 26 26 24 26 30 33 39 46 50 48
1 3 7 11 14 17 20 24 25 28 31 34 36 37 38 44 42 44 46 55 61 65 66 63 60 60 61 59 59 59 60 55 50 42 32 25 21 15 14 19 26 33 39 48
1 4 7 10 13 17 17 21 24 26 30 33 33 36 39 38 45 45 49 55 57 57 59 62 62 62 60 58 56 57 54 51 49 48 46 43 36 25 17 14 14 16 25 34
1 4 8 13 14 13 17 23 26 27 28 30 34 37 40 40 39 48 52 56 57 56 57 59 60 63 64 61 56 53 50 48 47 47 45 43 38 37 34 28 18 7 5 13
6 8 10 12 13 15 16 18 21 24 26 28 31 35 40 43 44 41 45 53 54 55 55 56 58 58 59 57 56 55 52 49 46 46 43 40 37 34 31 27 23 20 17 12
11 11 11 11 12 14 16 18 21 25 29 33 38 40 43 46 48 53 58 52 52 54 55 54 54 54 54 53 53 53 52 51 49 47 45 43 41 36 32 28 24 20 16 14
10 9 9 11 14 14 13 17 22 26 31 34 37 40 44 46 37 42 45 49 52 53 53 54 54 53 53 53 53 51 50 50 50 49 47 45 44 42 40 36 32 30 29 27
7 8 9 10 12 15 20 25 28 32 32 32 33 34 37 42 48 50 50 50 50 52 52 52 52 53 54 54 54 53 51 51 50 50 49 49 49 49 46 45 43 42 40 39
7 8 9 11 14 21 27 32 35 36 36 36 34 38 40 42 44 46 48 50 50 50 51 52 53 53 53 53 54 54 54 54 53 53 53 53 51 51 51 51 51 50 48 46
6 9 11 15 21 28 34 36 36 35 38 42 42 41 44 44 44 45 47 48 49 49 50 51 52 52 53 54 53 53 53 53 54 55 56 56 55 56 56 56 55 55 55 54
Wind_Direction_850mb
246 259 278 276 247 220 231 248 256 266 267 273 276 311 313 311 309 306 303 299 299 299 300 301 297 298 301 306 306 307 298 275 259 257 255 250 247 245 245 245 245 243 241 241
318 295 277 279 272 262 252 233 245 261 270 268 279 272 281 279 275 276 285 295 297 297 296 298 300 301 300 297 301 304 296 283 275 263 258 253 250 246 244 242 242 242 241 241
268 231 227 271 249 249 255 252 243 251 255 275 284 275 262 256 274 298 300 297 296 297 300 299 296 296 293 293 297 296 293 291 279 275 266 260 255 248 244 242 242 241 240 238
204 56 249 237 304 237 249 255 241 244 256 267 284 282 273 37 15 354 342 342 336 332 323 312 303 299 298 292 289 289 288 289 294 287 273 265 257 251 246 243 242 241 239 237
159 200 278 294 271 255 241 269 346 307 9 358 344 328 238 6 350 344 335 335 335 330 317 308 307 308 302 296 291 286 287 291 294 289 277 266 260 255 249 244 242 241 240 240
115 179 232 65 5 331 337 275 13 16 3 359 352 355 323 328 333 327 325 325 325 325 323 322 312 305 296 294 291 285 290 295 296 288 278 272 265 260 252 245 243 240 238 237
211 252 292 353 312 297 153 288 350 1 348 342 338 306 304 315 315 317 320 322 325 323 317 321 323 316 293 292 289 296 297 296 292 287 274 273 269 260 256 247 241 237 236 237
176 236 287 356 1 251 8 3 348 342 335 326 319 311 310 314 312 318 319 320 322 320 318 319 322 323 308 292 292 290 290 288 285 284 278 270 265 261 251 244 239 236 231 228
175 204 73 63 103 77 33 357 345 334 330 329 324 321 318 318 319 316 316 317 320 316 315 316 318 321 317 313 303 289 282 279 280 277 275 271 263 256 248 241 235 231 226 224
38 23 67 117 91 27 357 349 330 328 325 324 321 321 318 320 320 319 318 317 317 314 314 314 316 317 319 318 315 305 289 282 280 277 274 267 257 252 246 241 233 230 226 224
279 56 36 115 27 349 342 333 329 322 323 321 318 317 318 315 316 317 318 318 314 312 311 312 315 315 316 320 319 311 302 288 277 277 275 269 257 249 245 242 239 236 232 228
204 77 314 288 320 335 338 336 330 325 321 322 322 315 314 314 319 318 317 318 314 311 309 312 316 316 318 320 321 318 309 297 287 282 278 270 260 250 241 238 237 236 236 238
80 303 291 302 320 303 326 330 327 323 321 320 322 322 322 323 326 326 328 327 325 320 317 319 319 320 320 321 321 324 315 306 298 292 286 275 261 250 245 239 237 235 237 237
303 324 2 322 319 327 330 330 329 330 333 330 331 334 339 333 333 336 339 338 339 336 330 330 331 332 330 329 326 326 322 317 313 305 295 281 267 257 250 246 240 234 232 229
201 321 299 306 323 334 340 343 345 348 344 343 346 343 347 346 348 346 347 346 352 357 355 352 350 349 348 343 335 336 339 334 328 313 303 287 276 267 256 251 245 239 233 228
288 308 315 333 334 338 348 352 355 352 348 349 351 351 352 352 1 6 2 1 9 12 10 10 9 5 359 355 352 346 353 352 342 328 315 293 274 267 261 252 247 242 237 234
348 14 340 350 338 343 354 356 358 354 347 355 357 357 4 3 7 12 15 16 18 21 19 19 20 16 13 9 4 2 2 356 353 342 316 289 271 265 261 255 250 247 242 238
11 349 336 339 333 330 349 353 2 0 356 4 3 1 1 3 9 8 9 15 23 27 23 21 22 20 23 24 20 17 17 10 1 350 332 307 288 272 265 261 256 254 249 236
38 355 349 336 326 327 346 348 359 358 355 2 6 3 359 6 3 6 11 17 19 19 19 18 19 21 23 24 24 27 30 25 21 16 7 349 333 324 296 275 266 258 246 233
114 18 348 321 307 318 343 347 352 357 356 358 0 3 4 1 3 4 14 20 19 16 13 13 15 19 20 20 20 25 29 27 26 28 27 24 20 14 2 331 295 265 243 234
97 320 307 297 304 323 343 348 349 352 356 357 357 2 1 0 2 4 6 9 10 10 11 12 12 13 12 12 15 18 19 20 19 20 23 24 26 29 27 25 20 8 268 238
282 282 289 302 314 326 334 345 347 347 349 353 353 353 353 355 355 0 5 359 358 360 2 3 4 6 3 4 7 10 10 10 9 8 9 9 10 13 17 18 17 10 360 345
272 280 291 301 310 324 334 345 345 345 347 347 346 346 348 351 351 352 353 358 357 358 358 359 359 358 356 356 358 358 0 360 0 0 358 356 355 353 352 349 345 336 326 313
267 280 299 309 316 325 332 339 341 339 339 341 340 342 344 347 356 351 347 348 350 351 353 352 353 353 353 354 355 354 352 351 348 347 347 345 343 343 339 332 325 317 310 300
269 294 305 306 311 324 333 336 337 332 335 342 344 345 346 345 343 343 344 345 346 346 349 349 348 348 349 349 348 348 346 344 343 340 338 335 333 332 329 327 324 318 310 304
287 296 302 311 321 332 335 334 336 337 338 340 346 341 341 340 339 340 343 344 345 345 346 346 347 346 346 346 345 344 343 340 337 336 333 331 328 323 319 315 312 310 309 306
280 300 312 319 326 331 332 332 334 338 338 336 337 340 340 339 339 340 341 342 343 343 343 343 343 343 343 342 342 340 338 336 335 332 330 327 324 321 317 314 311 306 302 299